RESURS O1 DEB, 23345

Orbit data source: Space-Track

RESURS O1 DEB, 23345 is space debris in SSO originally from a launch on Fri, 04 Nov 1994 UTC launched from the Tyuratam Missile And Space Complex (TTMTR). Debris objects in space refer to the collection of defunct objects orbiting the Earth. Examples of debris include non-operational satellites, rocket bodies, and fragments generated from explosions, collisions, or faulty payload assembly.

Loading next visibility...
Identifier
23345, 1994-074D
Orbit
SSO
Country
Flag of CISCIS
Related business
Manufacturer
Yuzhnoe
Mission
Spacecraft
Bus & Motor
SEP MOTOR COVER, Unknown motor
Mass
~0 kg wet, ~1 kg dry
Launch date (UTC)
1994-11-04 (31 years ago)
Launch vehicle
Unknown
Launch site
Tyuratam Missile And Space Complex (TTMTR)
Object type
Payload
Rocket body
Debris
Shape & HBR
Unknown shape, 0.2 m
Radar Cross Section
Small (<0.1 m²)

Expand to show TLE details & history
Last TLE update: 6 hours ago

TLE from 6 hours ago
0 RESURS O1 DEB
1 23345U 94074D   25286.98977324  .00001292  00000-0  39588-3 0  9993
2 23345  97.8061 103.5010 0189276 200.1766 313.0278 14.33427121612477
Epoch: 2025-10-13T23:45Z
TLE epoch observation values (Epoch: 2025-10-13T23:45:16.407Z)
Latitude
28.16497°
Longitude
-91.41547°
Altitude
692.729 km
Speed
7.56 km/s
True Right ascension
19h 10m 45s
True Declination
28° 01' 15"
Sunlit
Object was in daylight at epoch
Visualization orbit readout
Latitude
Unknown
Longitude
Unknown
Altitude
Unknown
Speed
Unknown
Apparent Right ascension
Unknown
Apparent Declination
Unknown
Sunlit
N/A
Visualization observer readout
Local Sidereal Time
00:03:40
Azimuth
Unknown
Elevation
Unknown
Doppler factor
Unknown
Orbital elements
Apogee altitude
912.833 km
Perigee altitude
641.959 km
Semi-major axis
7,155.533 km
Eccentricity
0.01893
Inclination
97.8061°
RAAN
103.501°
Arg. of periapsis
200.1766°
True anomaly
311.41647°
Mean anomaly
313.0278°
Eccentric anomaly
312.22473°
Mean motion
3.58575 °/min
Orbital period
100.4 mins
BSTAR
0.00039588
Loading maneuver chart data...
Computing Atmospheric mass density...

Documentation

Showing up to 5 results
|